STARLINK-33854

Satellite information

Favourite Embed

Satellite Type and Status

PAYLOADIN ORBIT

Key statistics

Satellite STARLINK-33854 at a glance.

Uptime

232

Days in orbit

Revolutions

≈ 15.3

Per day

Orbit

LEO

Low Earth Orbit

Inclination

43.0

Latest

Satellite identification and parameters

Extended collection of information and parameters for STARLINK-33854.

Object identification

Identified? True

Debris? False

Object name: STARLINK-33854

International designator: 2025-083B

Object number (NORAD): 63635

Object ID (CCSDS): 63635

Country: UNITED STATES OF AMERICA (US)

Current information (Y/N): Y

RCS size: LARGE

Orbital parameters

Period: 94.265 minutes

Inclination: 43.0013 deg

SMA: 6861.124 km

Apoapsis: 484.173 km

Periapsis: 481.804 km

RAAN: 141.1379 deg

Eccentricy: 0.0001726

Argument of periapsis: 277.4996 deg

Mean anomaly: 82.5659 deg

Mean motion: 15.27600846 rev/day

Mean motion (dot): 0.00035678 rev/day2

B* drag term: 0.0012989 1/REarth

Two-line elements (TLE)

Creation date: Dec. 12, 2025, 7:26 a.m.

Reference frame: TEME

Reference center: EARTH

Epoch: Dec. 11, 2025, 8:07 p.m. UTC

TLE line 0: 0 STARLINK-33854

TLE line 1: 1 63635U 25083B 25345.83848735 .00035678 00000-0 12989-2 0 9996

TLE line 2: 2 63635 43.0013 141.1379 0001726 277.4996 82.5659 15.27600846 36634

Live tracking on map

Real-time ground track for satellite STARLINK-33854.

In-orbit conjunctions

There are no conjunctions computed for STARLINK-33854, at the moment. Check back to stay up to date, as we update our databases every day.

Go to all conjunctions

Associated space launch

A batch of 28 satellites for the Starlink mega-constellation - SpaceX's project for space-based Internet communication system.

STARLINK-33854 was lifted into orbit during the mission ‘Falcon 9 Block 5 | Starlink Group 6-74’, on board a Falcon 9 space rocket.

The launch took place on April 25, 2025, 1:52 a.m. from Space Launch Complex 40.

For more information about the launch, click the button.

Launch to space Falcon 9 Block 5 | Starlink Group 6-74
Falcon 9 Block 5 | Starlink Group 6-74

Agency: SpaceX

Status: Launch Successful

Launch date: April 25, 2025, 1:52 a.m. UTC

Rocket: Falcon 9

Launch pad: Space Launch Complex 40

Location: Cape Canaveral SFS, FL, USA

...

Latest news about this satellite

News about space launch
Live coverage: SpaceX to launch 28 Starlink satellites on Falcon 9 rocket from Cape Canaveral

The mission will be the 30th Starlink launch of the year for SpaceX. Liftoff from pad 40 at Cape Canaveral Space Force Station is targeted for Thursday, April 24, at 9:52 p.m. EDT (0152 UTC).

News about space launch
Launch Roundup: China to launch crew, Falcon 9 to launch Bandwagon rideshare

This week, China will launch three taikonauts to the Tiangong space station. SpaceX’s Falcon 9… The post Launch Roundup: China to launch crew, Falcon 9 to launch Bandwagon rideshare appeared first on NASASpaceFlight.com.

News about space launch
Weekly Pre Launch Preview: 4 Falcons, ISS Resupply, Recon Satellites, and G60 Constellation Launch

Weekly Pre Launch Preview: 4 Falcons, ISS Resupply, Recon Satellites, and G60 Constellation Launch


Newsletter sign-up

Weekly statistics, charts and insights to help you stay on top of the space industry.